| time (UTC) | temp F | wind direction | speed knots | gust knots | rain 1hr in | rain 24hr in | rain mn in | humidity % | barometer mb |
| 20260508023247 | 49 | 270 | 0.0 | 0.0 | 0.00 | 0.00 | 0.00 | 55 | 1015.4 |
| 20260508022742 | 49 | 270 | 0.0 | 0.0 | 0.00 | 0.00 | 0.00 | 55 | 1015.4 |
| 20260508022239 | 49 | 263 | 0.0 | 0.0 | 0.00 | 0.00 | 0.00 | 54 | 1015.4 |
| 20260508021736 | 49 | 263 | 0.0 | 0.0 | 0.00 | 0.00 | 0.00 | 54 | 1015.4 |
| 20260508021231 | 49 | 268 | 0.9 | 1.7 | 0.00 | 0.00 | 0.00 | 56 | 1015.3 |
| 20260508020729 | 49 | 251 | 0.0 | 0.0 | 0.00 | 0.00 | 0.00 | 54 | 1015.2 |
| 20260508020226 | 50 | 259 | 0.0 | 0.9 | 0.00 | 0.00 | 0.00 | 55 | 1015.1 |
| 20260508015723 | 50 | 286 | 0.0 | 0.9 | 0.00 | 0.00 | 0.00 | 54 | 1015.2 |
| 20260508015220 | 50 | 296 | 0.0 | 2.6 | 0.00 | 0.00 | 0.00 | 53 | 1015.2 |
| 20260508014717 | 51 | 270 | 0.0 | 0.0 | 0.00 | 0.00 | 0.00 | 52 | 1015.0 |
| 20260508014214 | 51 | 271 | 0.9 | 0.9 | 0.00 | 0.00 | 0.00 | 51 | 1015.0 |
| 20260508013709 | 51 | 294 | 0.0 | 3.5 | 0.00 | 0.00 | 0.00 | 52 | 1015.0 |
| 20260508013206 | 51 | 288 | 0.9 | 2.6 | 0.00 | 0.00 | 0.00 | 50 | 1014.6 |
| 20260508012704 | 51 | 270 | 0.0 | 0.0 | 0.00 | 0.00 | 0.00 | 51 | 1014.6 |
| 20260508012200 | 52 | 281 | 0.9 | 1.7 | 0.00 | 0.00 | 0.00 | 48 | 1014.8 |
| 20260508011659 | 52 | 269 | 0.0 | 0.9 | 0.00 | 0.00 | 0.00 | 48 | 1014.5 |
| 20260508011156 | 53 | 285 | 0.9 | 1.7 | 0.00 | 0.00 | 0.00 | 46 | 1014.3 |
| 20260508010653 | 53 | 238 | 0.0 | 6.1 | 0.00 | 0.00 | 0.00 | 47 | 1014.4 |
| 20260508010151 | 54 | 287 | 1.7 | 3.5 | 0.00 | 0.00 | 0.00 | 45 | 1014.5 |
| 20260508005648 | 54 | 265 | 2.6 | 7.0 | 0.00 | 0.00 | 0.00 | 45 | 1014.2 |
| 20260508005144 | 54 | 278 | 2.6 | 2.6 | 0.00 | 0.00 | 0.00 | 45 | 1014.1 |
| 20260508004640 | 54 | 290 | 2.6 | 3.5 | 0.00 | 0.00 | 0.00 | 44 | 1014.2 |
| 20260508004136 | 54 | 291 | 1.7 | 2.6 | 0.00 | 0.00 | 0.00 | 45 | 1014.0 |
| 20260508003633 | 54 | 282 | 1.7 | 5.2 | 0.00 | 0.00 | 0.00 | 45 | 1014.1 |
| 20260508003131 | 55 | 274 | 0.0 | 3.5 | 0.00 | 0.00 | 0.00 | 45 | 1014.0 |
| 20260508002627 | 55 | 262 | 1.7 | 6.1 | 0.00 | 0.00 | 0.00 | 45 | 1014.0 |
| 20260508002125 | 55 | 274 | 1.7 | 7.0 | 0.00 | 0.00 | 0.00 | 44 | 1013.9 |
| 20260508001619 | 55 | 265 | 2.6 | 5.2 | 0.00 | 0.00 | 0.00 | 43 | 1013.8 |
| 20260508001116 | 56 | 278 | 3.5 | 7.8 | 0.00 | 0.00 | 0.00 | 42 | 1013.6 |
| 20260508000612 | 56 | 253 | 2.6 | 7.0 | 0.00 | 0.00 | 0.00 | 42 | 1013.5 |
| 20260508000110 | 56 | 267 | 4.3 | 6.1 | 0.00 | 0.00 | 0.00 | 41 | 1013.7 |
| 20260507235606 | 57 | 263 | 1.7 | 7.0 | 0.00 | 0.00 | 0.00 | 43 | 1013.5 |
| 20260507235104 | 57 | 295 | 3.5 | 5.2 | 0.00 | 0.00 | 0.00 | 43 | 1013.3 |
| 20260507234600 | 57 | 284 | 7.0 | 7.8 | 0.00 | 0.00 | 0.00 | 42 | 1013.2 |
| 20260507234056 | 58 | 283 | 5.2 | 8.7 | 0.00 | 0.00 | 0.00 | 41 | 1013.2 |
| 20260507233553 | 59 | 275 | 3.5 | 9.6 | 0.00 | 0.00 | 0.00 | 44 | 1013.3 |
| 20260507233052 | 59 | 252 | 2.6 | 5.2 | 0.00 | 0.00 | 0.00 | 42 | 1013.1 |
| 20260507232547 | 59 | 287 | 3.5 | 5.2 | 0.00 | 0.00 | 0.00 | 42 | 1012.9 |
| 20260507232045 | 58 | 257 | 3.5 | 5.2 | 0.00 | 0.00 | 0.00 | 43 | 1013.0 |
| 20260507231541 | 58 | 260 | 1.7 | 2.6 | 0.00 | 0.00 | 0.00 | 46 | 1013.1 |
| 20260507231039 | 59 | 267 | 7.0 | 9.6 | 0.00 | 0.00 | 0.00 | 40 | 1012.9 |
| 20260507230535 | 59 | 270 | 5.2 | 7.8 | 0.00 | 0.00 | 0.00 | 40 | 1013.0 |
| 20260507230032 | 59 | 294 | 6.1 | 11.3 | 0.00 | 0.00 | 0.00 | 42 | 1012.9 |
| 20260507225527 | 59 | 289 | 3.5 | 7.0 | 0.00 | 0.00 | 0.00 | 43 | 1012.8 |
| 20260507225024 | 60 | 281 | 2.6 | 11.3 | 0.00 | 0.00 | 0.00 | 43 | 1012.8 |
| 20260507224519 | 60 | 262 | 8.7 | 11.3 | 0.00 | 0.00 | 0.00 | 41 | 1012.8 |
| 20260507224016 | 61 | 272 | 2.6 | 6.1 | 0.00 | 0.00 | 0.00 | 41 | 1012.9 |
| 20260507223512 | 60 | 317 | 0.9 | 8.7 | 0.00 | 0.00 | 0.00 | 44 | 1012.7 |
| 20260507223010 | 59 | 292 | 3.5 | 5.2 | 0.00 | 0.00 | 0.00 | 45 | 1012.6 |
| 20260507222507 | 58 | 253 | 5.2 | 7.0 | 0.00 | 0.00 | 0.00 | 43 | 1012.7 |
| 20260507222003 | 58 | 240 | 6.1 | 7.8 | 0.00 | 0.00 | 0.00 | 45 | 1012.6 |
| 20260507221459 | 58 | 273 | 2.6 | 7.0 | 0.00 | 0.00 | 0.00 | 46 | 1012.7 |
| 20260507220956 | 58 | 277 | 3.5 | 6.1 | 0.00 | 0.00 | 0.00 | 47 | 1012.6 |
| 20260507220454 | 58 | 288 | 3.5 | 7.8 | 0.00 | 0.00 | 0.00 | 43 | 1012.6 |
| 20260507215950 | 58 | 278 | 2.6 | 5.2 | 0.00 | 0.00 | 0.00 | 44 | 1012.5 |
| 20260507215446 | 58 | 272 | 1.7 | 5.2 | 0.00 | 0.00 | 0.00 | 44 | 1012.5 |
| 20260507214944 | 58 | 283 | 2.6 | 7.0 | 0.00 | 0.00 | 0.00 | 45 | 1012.6 |
| 20260507214442 | 59 | 253 | 4.3 | 11.3 | 0.00 | 0.00 | 0.00 | 43 | 1012.4 |
| 20260507213937 | 59 | 310 | 0.0 | 3.5 | 0.00 | 0.00 | 0.00 | 50 | 1012.2 |
| 20260507213428 | 59 | 284 | 1.7 | 3.5 | 0.00 | 0.00 | 0.00 | 46 | 1012.4 |
| 20260507212925 | 59 | 275 | 3.5 | 7.0 | 0.00 | 0.00 | 0.00 | 47 | 1012.2 |
| 20260507212420 | 59 | 290 | 0.0 | 2.6 | 0.00 | 0.00 | 0.00 | 53 | 1012.3 |
| 20260507211918 | 59 | 256 | 0.9 | 3.5 | 0.00 | 0.00 | 0.00 | 49 | 1012.2 |
| 20260507211414 | 61 | 280 | 3.5 | 7.8 | 0.00 | 0.00 | 0.00 | 40 | 1012.0 |
| 20260507210911 | 63 | 338 | 0.0 | 3.5 | 0.00 | 0.00 | 0.00 | 52 | 1012.0 |
| 20260507210408 | 61 | 271 | 3.5 | 3.5 | 0.00 | 0.00 | 0.00 | 48 | 1012.1 |
| 20260507205904 | 62 | 268 | 1.7 | 2.6 | 0.00 | 0.00 | 0.00 | 45 | 1012.1 |
| 20260507205402 | 62 | 254 | 0.9 | 6.1 | 0.00 | 0.00 | 0.00 | 47 | 1012.0 |
| 20260507204858 | 61 | 181 | 2.6 | 3.5 | 0.00 | 0.00 | 0.00 | 42 | 1012.3 |
| 20260507204355 | 60 | 344 | 0.0 | 5.2 | 0.00 | 0.00 | 0.00 | 45 | 1012.2 |
| 20260507203852 | 60 | 226 | 7.8 | 8.7 | 0.00 | 0.00 | 0.00 | 41 | 1012.1 |
| 20260507203350 | 63 | 258 | 1.7 | 7.8 | 0.00 | 0.00 | 0.00 | 43 | 1012.0 |
| 20260507202846 | 63 | 221 | 0.9 | 6.1 | 0.00 | 0.00 | 0.00 | 41 | 1012.0 |
| 20260507202337 | 63 | 247 | 5.2 | 7.0 | 0.00 | 0.00 | 0.00 | 45 | 1012.2 |
| 20260507201833 | 62 | 274 | 5.2 | 8.7 | 0.00 | 0.00 | 0.00 | 43 | 1012.3 |
| 20260507201328 | 59 | 287 | 3.5 | 13.0 | 0.00 | 0.00 | 0.00 | 49 | 1012.1 |
| 20260507200825 | 62 | 273 | 5.2 | 7.8 | 0.00 | 0.00 | 0.00 | 43 | 1012.2 |
| 20260507200321 | 59 | 254 | 1.7 | 7.0 | 0.00 | 0.00 | 0.00 | 55 | 1012.3 |
| 20260507195817 | 59 | 278 | 7.8 | 9.6 | 0.00 | 0.00 | 0.00 | 43 | 1012.3 |
| 20260507195314 | 59 | 279 | 4.3 | 6.1 | 0.00 | 0.00 | 0.00 | 49 | 1012.5 |
| 20260507194812 | 60 | 280 | 3.5 | 6.1 | 0.00 | 0.00 | 0.00 | 47 | 1012.6 |
| 20260507194308 | 62 | 301 | 2.6 | 7.8 | 0.00 | 0.00 | 0.00 | 51 | 1012.8 |
| 20260507193805 | 60 | 260 | 5.2 | 7.0 | 0.00 | 0.00 | 0.00 | 46 | 1012.7 |
| 20260507193302 | 59 | 242 | 2.6 | 5.2 | 0.00 | 0.00 | 0.00 | 47 | 1012.8 |
| 20260507192757 | 60 | 282 | 7.8 | 13.0 | 0.00 | 0.00 | 0.00 | 46 | 1012.7 |
| 20260507192254 | 60 | 247 | 5.2 | 7.0 | 0.00 | 0.00 | 0.00 | 47 | 1012.7 |
| 20260507191750 | 60 | 303 | 1.7 | 3.5 | 0.00 | 0.00 | 0.00 | 49 | 1012.6 |
| 20260507191247 | 60 | 257 | 7.8 | 11.3 | 0.00 | 0.00 | 0.00 | 43 | 1012.7 |
| 20260507190743 | 61 | 252 | 3.5 | 12.2 | 0.00 | 0.00 | 0.00 | 48 | 1012.7 |
| 20260507190242 | 59 | 286 | 3.5 | 5.2 | 0.00 | 0.00 | 0.00 | 53 | 1012.8 |
| 20260507185740 | 60 | 261 | 4.3 | 9.6 | 0.00 | 0.00 | 0.00 | 49 | 1012.9 |
| 20260507185237 | 59 | 269 | 2.6 | 6.1 | 0.00 | 0.00 | 0.00 | 54 | 1012.8 |
| 20260507184735 | 60 | 289 | 3.5 | 6.1 | 0.00 | 0.00 | 0.00 | 48 | 1012.9 |
| 20260507184232 | 63 | 233 | 2.6 | 5.2 | 0.00 | 0.00 | 0.00 | 50 | 1012.9 |
| 20260507183729 | 61 | 293 | 8.7 | 11.3 | 0.00 | 0.00 | 0.00 | 43 | 1012.8 |
| 20260507183226 | 59 | 297 | 0.9 | 2.6 | 0.00 | 0.00 | 0.00 | 56 | 1012.8 |
| 20260507182723 | 59 | 257 | 2.6 | 6.1 | 0.00 | 0.00 | 0.00 | 49 | 1012.9 |
| 20260507182218 | 60 | 274 | 3.5 | 7.8 | 0.00 | 0.00 | 0.00 | 47 | 1013.0 |
| 20260507181715 | 61 | 242 | 1.7 | 6.1 | 0.00 | 0.00 | 0.00 | 48 | 1012.8 |
| 20260507181211 | 60 | 282 | 6.1 | 12.2 | 0.00 | 0.00 | 0.00 | 49 | 1012.9 |
| 20260507180709 | 59 | 281 | 6.1 | 7.8 | 0.00 | 0.00 | 0.00 | 48 | 1012.9 |
| 20260507180205 | 59 | 239 | 4.3 | 7.0 | 0.00 | 0.00 | 0.00 | 49 | 1013.0 |
| 20260507175700 | 58 | 248 | 4.3 | 7.0 | 0.00 | 0.00 | 0.00 | 46 | 1013.0 |
| 20260507175158 | 58 | 279 | 0.9 | 7.0 | 0.00 | 0.00 | 0.00 | 54 | 1013.0 |
| 20260507174655 | 60 | 254 | 5.2 | 7.8 | 0.00 | 0.00 | 0.00 | 44 | 1013.0 |
| 20260507174153 | 59 | 278 | 6.1 | 7.8 | 0.00 | 0.00 | 0.00 | 46 | 1013.0 |
| 20260507173650 | 60 | 200 | 1.7 | 7.0 | 0.00 | 0.00 | 0.00 | 47 | 1013.5 |
| 20260507173147 | 60 | 278 | 3.5 | 6.1 | 0.00 | 0.00 | 0.00 | 54 | 1013.3 |
| 20260507172643 | 61 | 250 | 4.3 | 6.1 | 0.00 | 0.00 | 0.00 | 52 | 1013.3 |
| 20260507172141 | 60 | 185 | 1.7 | 7.8 | 0.00 | 0.00 | 0.00 | 47 | 1013.5 |
| 20260507171641 | 58 | 256 | 0.9 | 6.1 | 0.00 | 0.00 | 0.00 | 51 | 1013.6 |
| 20260507171138 | 60 | 282 | 0.0 | 6.1 | 0.00 | 0.00 | 0.00 | 58 | 1013.7 |
| 20260507170635 | 61 | 269 | 5.2 | 7.0 | 0.00 | 0.00 | 0.00 | 53 | 1013.9 |
| 20260507170132 | 60 | 236 | 2.6 | 5.2 | 0.00 | 0.00 | 0.00 | 54 | 1013.8 |
| 20260507165628 | 59 | 237 | 4.3 | 7.0 | 0.00 | 0.00 | 0.00 | 49 | 1014.0 |
| 20260507165124 | 59 | 88 | 0.9 | 2.6 | 0.00 | 0.00 | 0.00 | 56 | 1013.9 |
| 20260507164620 | 58 | 216 | 3.5 | 6.1 | 0.00 | 0.00 | 0.00 | 51 | 1013.8 |
| 20260507164117 | 60 | 268 | 4.3 | 8.7 | 0.00 | 0.00 | 0.00 | 50 | 1013.7 |
| 20260507163615 | 59 | 295 | 5.2 | 6.1 | 0.00 | 0.00 | 0.00 | 50 | 1013.9 |
| 20260507163113 | 58 | 274 | 5.2 | 7.0 | 0.00 | 0.00 | 0.00 | 52 | 1014.0 |
| 20260507162613 | 58 | 257 | 3.5 | 8.7 | 0.00 | 0.00 | 0.00 | 49 | 1014.1 |
| 20260507162110 | 59 | 246 | 1.7 | 7.0 | 0.00 | 0.00 | 0.00 | 50 | 1014.1 |
| 20260507161606 | 57 | 292 | 1.7 | 8.7 | 0.00 | 0.00 | 0.00 | 56 | 1014.1 |
| 20260507161103 | 56 | 303 | 4.3 | 7.0 | 0.00 | 0.00 | 0.00 | 55 | 1014.2 |
| 20260507160600 | 57 | 280 | 6.1 | 7.0 | 0.00 | 0.00 | 0.00 | 51 | 1014.3 |
| 20260507160056 | 57 | 236 | 3.5 | 6.1 | 0.00 | 0.00 | 0.00 | 51 | 1014.3 |
| 20260507155551 | 55 | 259 | 3.5 | 5.2 | 0.00 | 0.00 | 0.00 | 56 | 1014.3 |
| 20260507155049 | 55 | 286 | 3.5 | 6.1 | 0.00 | 0.00 | 0.00 | 56 | 1014.4 |
| 20260507154545 | 56 | 244 | 0.9 | 3.5 | 0.00 | 0.00 | 0.00 | 53 | 1014.3 |
| 20260507154043 | 56 | 239 | 1.7 | 2.6 | 0.00 | 0.00 | 0.00 | 55 | 1014.3 |
| 20260507153539 | 57 | 300 | 1.7 | 5.2 | 0.00 | 0.00 | 0.00 | 55 | 1014.4 |
| 20260507153035 | 56 | 274 | 3.5 | 5.2 | 0.00 | 0.00 | 0.00 | 49 | 1014.4 |
| 20260507152531 | 55 | 226 | 0.0 | 5.2 | 0.00 | 0.00 | 0.00 | 54 | 1014.5 |
| 20260507152028 | 56 | 280 | 2.6 | 3.5 | 0.00 | 0.00 | 0.00 | 60 | 1014.4 |
| 20260507151524 | 58 | 9 | 0.0 | 3.5 | 0.00 | 0.00 | 0.00 | 64 | 1014.8 |
| 20260507151021 | 56 | 239 | 1.7 | 5.2 | 0.00 | 0.00 | 0.00 | 55 | 1014.6 |
| 20260507150518 | 57 | 294 | 2.6 | 5.2 | 0.00 | 0.00 | 0.00 | 58 | 1014.8 |
| 20260507150015 | 57 | 214 | 0.9 | 2.6 | 0.00 | 0.00 | 0.00 | 54 | 1014.5 |
| 20260507145510 | 56 | 254 | 0.9 | 3.5 | 0.00 | 0.00 | 0.00 | 54 | 1014.8 |
| 20260507145008 | 55 | 248 | 1.7 | 5.2 | 0.00 | 0.00 | 0.00 | 56 | 1015.0 |
| 20260507144504 | 55 | 254 | 1.7 | 6.1 | 0.00 | 0.00 | 0.00 | 59 | 1015.0 |
| 20260507144001 | 55 | 255 | 1.7 | 7.8 | 0.00 | 0.00 | 0.00 | 56 | 1014.9 |
| 20260507143459 | 55 | 222 | 5.2 | 6.1 | 0.00 | 0.00 | 0.00 | 53 | 1015.0 |
| 20260507142955 | 55 | 263 | 2.6 | 3.5 | 0.00 | 0.00 | 0.00 | 62 | 1015.1 |
| 20260507142451 | 54 | 288 | 3.5 | 6.1 | 0.00 | 0.00 | 0.00 | 62 | 1015.2 |
| 20260507141948 | 55 | 258 | 1.7 | 3.5 | 0.00 | 0.00 | 0.00 | 55 | 1015.1 |
| 20260507141444 | 55 | 358 | 0.9 | 6.1 | 0.00 | 0.00 | 0.00 | 60 | 1015.2 |
| 20260507140941 | 55 | 92 | 0.0 | 2.6 | 0.00 | 0.00 | 0.00 | 62 | 1015.3 |
| 20260507140438 | 55 | 87 | 0.9 | 0.9 | 0.00 | 0.00 | 0.00 | 53 | 1015.2 |
| 20260507135936 | 55 | 242 | 0.0 | 2.6 | 0.00 | 0.00 | 0.00 | 57 | 1015.3 |
| 20260507135432 | 57 | 12 | 0.0 | 0.9 | 0.00 | 0.00 | 0.00 | 60 | 1015.4 |
| 20260507134930 | 57 | 104 | 0.0 | 0.0 | 0.00 | 0.00 | 0.00 | 61 | 1015.7 |
| 20260507134426 | 56 | 100 | 0.0 | 0.9 | 0.00 | 0.00 | 0.00 | 58 | 1015.5 |
| 20260507133922 | 55 | 103 | 0.0 | 0.0 | 0.00 | 0.00 | 0.00 | 55 | 1015.6 |
| 20260507133418 | 54 | 82 | 0.9 | 1.7 | 0.00 | 0.00 | 0.00 | 68 | 1015.6 |
| 20260507132917 | 54 | 65 | 0.9 | 1.7 | 0.00 | 0.00 | 0.00 | 65 | 1015.7 |
| 20260507132413 | 54 | 232 | 0.0 | 1.7 | 0.00 | 0.00 | 0.00 | 66 | 1015.8 |
| 20260507131909 | 55 | 95 | 0.0 | 0.0 | 0.00 | 0.00 | 0.00 | 66 | 1015.6 |
| 20260507131406 | 54 | 96 | 0.9 | 1.7 | 0.00 | 0.00 | 0.00 | 66 | 1015.8 |
| 20260507130903 | 54 | 86 | 1.7 | 1.7 | 0.00 | 0.00 | 0.00 | 66 | 1015.7 |
| 20260507130400 | 54 | 76 | 0.0 | 0.0 | 0.00 | 0.00 | 0.00 | 67 | 1015.7 |
| 20260507125859 | 53 | 99 | 0.9 | 1.7 | 0.00 | 0.00 | 0.00 | 70 | 1015.9 |
| 20260507125356 | 53 | 96 | 0.9 | 1.7 | 0.00 | 0.00 | 0.00 | 72 | 1015.7 |
| 20260507124854 | 53 | 83 | 0.9 | 0.9 | 0.00 | 0.00 | 0.00 | 73 | 1015.8 |
| 20260507124349 | 52 | 90 | 0.9 | 0.9 | 0.00 | 0.00 | 0.00 | 78 | 1015.7 |
| 20260507123848 | 52 | 107 | 1.7 | 1.7 | 0.00 | 0.00 | 0.00 | 75 | 1015.7 |
| 20260507123345 | 51 | 86 | 0.0 | 1.7 | 0.00 | 0.00 | 0.00 | 75 | 1015.8 |
| 20260507122841 | 51 | 223 | 0.0 | 0.0 | 0.00 | 0.00 | 0.00 | 77 | 1016.0 |
| 20260507122337 | 51 | 107 | 0.0 | 0.0 | 0.00 | 0.00 | 0.00 | 79 | 1015.8 |
| 20260507121833 | 50 | 107 | 0.0 | 0.0 | 0.00 | 0.00 | 0.00 | 87 | 1015.9 |
| 20260507121329 | 48 | 107 | 0.0 | 0.0 | 0.00 | 0.00 | 0.00 | 88 | 1015.7 |
| 20260507120826 | 48 | 107 | 0.0 | 0.0 | 0.00 | 0.00 | 0.00 | 89 | 1015.9 |
| 20260507120322 | 48 | 107 | 0.0 | 0.0 | 0.00 | 0.00 | 0.00 | 92 | 1015.9 |
| 20260507115818 | 47 | 107 | 0.0 | 0.0 | 0.00 | 0.00 | 0.00 | 94 | 1015.7 |
| 20260507115314 | 47 | 107 | 0.0 | 0.0 | 0.00 | 0.00 | 0.00 | 92 | 1015.4 |
| 20260507114810 | 47 | 107 | 0.0 | 0.0 | 0.00 | 0.00 | 0.00 | 94 | 1015.5 |
| 20260507114307 | 46 | 108 | 0.0 | 0.0 | 0.00 | 0.00 | 0.00 | 96 | 1015.6 |
| 20260507113805 | 46 | 108 | 0.0 | 0.0 | 0.00 | 0.00 | 0.00 | 97 | 1015.4 |
| 20260507113301 | 46 | 108 | 0.0 | 0.0 | 0.00 | 0.00 | 0.00 | 98 | 1015.5 |
| 20260507112759 | 46 | 108 | 0.0 | 0.0 | 0.00 | 0.00 | 0.00 | 99 | 1015.3 |
| 20260507112256 | 46 | 108 | 0.0 | 0.0 | 0.00 | 0.00 | 0.00 | 99 | 1015.2 |
| 20260507111754 | 45 | 108 | 0.0 | 0.0 | 0.00 | 0.00 | 0.00 | 99 | 1015.4 |
| 20260507111250 | 45 | 108 | 0.0 | 0.0 | 0.00 | 0.00 | 0.00 | 99 | 1015.2 |
| 20260507110746 | 44 | 108 | 0.0 | 0.0 | 0.00 | 0.00 | 0.00 | 99 | 1015.5 |
| 20260507110243 | 44 | 108 | 0.0 | 0.0 | 0.00 | 0.00 | 0.00 | 99 | 1015.2 |
| 20260507105740 | 43 | 107 | 0.0 | 0.0 | 0.00 | 0.00 | 0.00 | 99 | 1015.1 |
| 20260507105236 | 43 | 107 | 0.0 | 0.0 | 0.00 | 0.00 | 0.00 | 99 | 1015.2 |
| 20260507104733 | 43 | 107 | 0.0 | 0.0 | 0.00 | 0.00 | 0.00 | 99 | 1015.1 |
| 20260507104230 | 43 | 107 | 0.0 | 0.0 | 0.00 | 0.00 | 0.00 | 99 | 1014.9 |
| 20260507103726 | 43 | 107 | 0.0 | 0.0 | 0.00 | 0.00 | 0.00 | 99 | 1014.9 |
| 20260507103222 | 43 | 107 | 0.0 | 0.0 | 0.00 | 0.00 | 0.00 | 99 | 1014.9 |
| 20260507102718 | 43 | 107 | 0.0 | 0.0 | 0.00 | 0.00 | 0.00 | 99 | 1014.6 |
| 20260507102215 | 43 | 107 | 0.0 | 0.0 | 0.00 | 0.00 | 0.00 | 99 | 1014.6 |
| 20260507101712 | 44 | 107 | 0.0 | 0.0 | 0.00 | 0.00 | 0.00 | 99 | 1014.5 |
| 20260507101207 | 44 | 108 | 0.0 | 0.0 | 0.00 | 0.00 | 0.00 | 99 | 1014.6 |
| 20260507100705 | 44 | 122 | 0.0 | 0.0 | 0.00 | 0.00 | 0.00 | 98 | 1014.7 |
| 20260507100203 | 44 | 172 | 0.0 | 0.0 | 0.00 | 0.00 | 0.00 | 97 | 1014.8 |
| 20260507095700 | 45 | 176 | 0.0 | 0.0 | 0.00 | 0.00 | 0.00 | 95 | 1014.7 |
| 20260507095156 | 45 | 235 | 0.0 | 0.0 | 0.00 | 0.00 | 0.00 | 96 | 1014.6 |
| 20260507094653 | 45 | 220 | 0.0 | 0.0 | 0.00 | 0.00 | 0.00 | 97 | 1014.8 |
| 20260507094150 | 45 | 219 | 0.0 | 0.0 | 0.00 | 0.00 | 0.00 | 96 | 1014.5 |
| 20260507093647 | 46 | 219 | 0.0 | 0.0 | 0.00 | 0.00 | 0.00 | 96 | 1014.6 |
| 20260507093146 | 46 | 220 | 0.9 | 0.9 | 0.00 | 0.00 | 0.00 | 96 | 1014.3 |
| 20260507092642 | 46 | 5 | 0.9 | 0.9 | 0.00 | 0.00 | 0.00 | 97 | 1014.5 |
| 20260507092139 | 46 | 359 | 0.0 | 0.0 | 0.00 | 0.00 | 0.00 | 96 | 1014.4 |
| 20260507091635 | 47 | 344 | 0.0 | 0.0 | 0.00 | 0.00 | 0.00 | 94 | 1014.6 |
| 20260507091131 | 47 | 346 | 0.0 | 0.0 | 0.00 | 0.00 | 0.00 | 94 | 1014.3 |
| 20260507090627 | 47 | 345 | 0.0 | 0.0 | 0.00 | 0.00 | 0.00 | 93 | 1014.6 |
| 20260507090125 | 47 | 337 | 0.0 | 0.0 | 0.00 | 0.00 | 0.00 | 94 | 1014.6 |
| 20260507085622 | 48 | 237 | 0.0 | 0.9 | 0.00 | 0.00 | 0.00 | 96 | 1014.4 |
| 20260507085118 | 48 | 239 | 0.0 | 0.0 | 0.00 | 0.00 | 0.00 | 95 | 1014.5 |
| 20260507084615 | 47 | 250 | 0.0 | 0.0 | 0.00 | 0.00 | 0.00 | 95 | 1014.3 |
| 20260507084112 | 48 | 233 | 0.0 | 0.0 | 0.00 | 0.00 | 0.00 | 96 | 1014.3 |
| 20260507083609 | 48 | 266 | 0.0 | 0.0 | 0.00 | 0.00 | 0.00 | 93 | 1014.6 |
| 20260507083106 | 48 | 266 | 0.0 | 0.0 | 0.00 | 0.00 | 0.00 | 94 | 1014.3 |
| 20260507082601 | 48 | 267 | 0.0 | 0.0 | 0.00 | 0.00 | 0.00 | 90 | 1014.6 |
| 20260507082058 | 48 | 277 | 0.0 | 0.0 | 0.00 | 0.00 | 0.00 | 90 | 1014.7 |
| 20260507081554 | 48 | 350 | 0.0 | 0.0 | 0.00 | 0.00 | 0.00 | 92 | 1014.4 |
| 20260507081051 | 48 | 248 | 1.7 | 1.7 | 0.00 | 0.00 | 0.00 | 97 | 1014.6 |
| 20260507080547 | 48 | 95 | 0.0 | 0.0 | 0.00 | 0.00 | 0.00 | 98 | 1014.5 |
| 20260507080044 | 48 | 95 | 0.0 | 0.0 | 0.00 | 0.00 | 0.00 | 98 | 1014.3 |
| 20260507075539 | 48 | 278 | 0.0 | 0.0 | 0.00 | 0.00 | 0.00 | 97 | 1014.5 |
| 20260507075036 | 48 | 278 | 0.0 | 0.0 | 0.00 | 0.00 | 0.00 | 96 | 1014.4 |
| 20260507074532 | 49 | 278 | 0.0 | 0.0 | 0.00 | 0.00 | 0.00 | 96 | 1014.5 |
| 20260507074031 | 49 | 278 | 0.0 | 0.0 | 0.00 | 0.00 | 0.00 | 93 | 1014.5 |
| 20260507073527 | 49 | 278 | 0.0 | 0.0 | 0.00 | 0.00 | 0.00 | 92 | 1014.3 |
| 20260507073023 | 49 | 307 | 0.0 | 0.0 | 0.00 | 0.00 | 0.00 | 90 | 1014.3 |
| 20260507072521 | 49 | 257 | 0.0 | 0.0 | 0.00 | 0.00 | 0.00 | 93 | 1014.4 |
| 20260507072018 | 49 | 263 | 0.0 | 0.0 | 0.00 | 0.00 | 0.00 | 93 | 1014.4 |
| 20260507071515 | 49 | 257 | 0.0 | 0.9 | 0.00 | 0.00 | 0.00 | 94 | 1014.6 |
| 20260507071012 | 49 | 252 | 0.9 | 1.7 | 0.00 | 0.00 | 0.00 | 96 | 1014.4 |
| 20260507070509 | 49 | 253 | 0.0 | 0.0 | 0.00 | 0.00 | 0.00 | 97 | 1014.3 |
| 20260507070010 | 49 | 250 | 1.7 | 1.7 | 0.00 | 0.00 | 0.00 | 97 | 1014.3 |
| 20260507065502 | 50 | 237 | 0.0 | 0.0 | 0.00 | 0.00 | 0.00 | 99 | 1014.4 |
| 20260507064959 | 50 | 351 | 0.0 | 0.0 | 0.00 | 0.00 | 0.00 | 99 | 1014.3 |
| 20260507064457 | 50 | 242 | 0.0 | 0.0 | 0.00 | 0.00 | 0.00 | 99 | 1014.3 |
| 20260507063955 | 49 | 242 | 0.0 | 0.0 | 0.00 | 0.00 | 0.00 | 99 | 1014.4 |
| 20260507063452 | 50 | 243 | 0.0 | 0.0 | 0.00 | 0.00 | 0.00 | 99 | 1014.3 |
| 20260507062949 | 50 | 247 | 0.0 | 0.0 | 0.00 | 0.00 | 0.00 | 99 | 1014.1 |
| 20260507062446 | 50 | 247 | 0.0 | 0.0 | 0.00 | 0.00 | 0.00 | 99 | 1014.3 |
| 20260507061943 | 50 | 239 | 0.0 | 0.9 | 0.00 | 0.00 | 0.00 | 99 | 1014.3 |
| 20260507061442 | 50 | 283 | 0.0 | 0.9 | 0.00 | 0.00 | 0.00 | 99 | 1014.2 |
| 20260507060940 | 50 | 254 | 0.0 | 1.7 | 0.00 | 0.00 | 0.00 | 99 | 1014.6 |
| 20260507060436 | 50 | 258 | 0.0 | 0.0 | 0.00 | 0.00 | 0.00 | 99 | 1014.5 |
| 20260507055933 | 50 | 259 | 0.0 | 0.0 | 0.00 | 0.00 | 0.00 | 99 | 1014.7 |
| 20260507055428 | 50 | 261 | 1.7 | 1.7 | 0.00 | 0.00 | 0.00 | 99 | 1014.7 |
| 20260507054920 | 50 | 272 | 0.0 | 0.0 | 0.00 | 0.00 | 0.00 | 99 | 1014.6 |
| 20260507054416 | 50 | 315 | 0.0 | 0.0 | 0.00 | 0.00 | 0.00 | 99 | 1014.6 |
| 20260507053913 | 50 | 319 | 0.0 | 0.0 | 0.00 | 0.00 | 0.00 | 99 | 1014.7 |
| 20260507053411 | 51 | 350 | 0.0 | 0.0 | 0.00 | 0.00 | 0.00 | 99 | 1014.6 |
| 20260507052910 | 51 | 283 | 0.0 | 0.0 | 0.00 | 0.00 | 0.00 | 99 | 1014.7 |
| 20260507052406 | 51 | 282 | 0.0 | 0.0 | 0.00 | 0.00 | 0.00 | 99 | 1014.9 |
| 20260507051903 | 51 | 270 | 0.0 | 0.9 | 0.00 | 0.00 | 0.00 | 99 | 1014.9 |
| 20260507051401 | 51 | 271 | 0.0 | 0.0 | 0.00 | 0.00 | 0.00 | 99 | 1014.8 |
| 20260507050857 | 51 | 272 | 0.0 | 0.0 | 0.00 | 0.00 | 0.00 | 99 | 1015.0 |
| 20260507050354 | 51 | 139 | 0.0 | 0.0 | 0.00 | 0.00 | 0.00 | 99 | 1015.0 |
| 20260507045851 | 51 | 139 | 0.0 | 0.0 | 0.00 | 0.00 | 0.00 | 99 | 1014.8 |
| 20260507045347 | 51 | 139 | 0.0 | 0.0 | 0.00 | 0.00 | 0.00 | 99 | 1014.8 |
| 20260507044844 | 51 | 139 | 0.0 | 0.0 | 0.00 | 0.00 | 0.00 | 99 | 1014.8 |
| 20260507044340 | 51 | 140 | 0.0 | 0.0 | 0.00 | 0.00 | 0.00 | 99 | 1014.9 |
| 20260507043831 | 51 | 140 | 0.0 | 0.0 | 0.00 | 0.00 | 0.00 | 99 | 1014.9 |
| 20260507043328 | 51 | 138 | 0.0 | 0.0 | 0.00 | 0.00 | 0.00 | 99 | 1014.6 |
| 20260507042825 | 51 | 152 | 0.0 | 0.0 | 0.00 | 0.00 | 0.00 | 99 | 1014.9 |
| 20260507042320 | 51 | 150 | 0.0 | 0.0 | 0.00 | 0.00 | 0.00 | 99 | 1014.7 |
| 20260507041817 | 51 | 150 | 0.0 | 0.0 | 0.00 | 0.00 | 0.00 | 99 | 1014.6 |
| 20260507041314 | 51 | 155 | 0.0 | 0.0 | 0.00 | 0.00 | 0.00 | 99 | 1014.8 |
| 20260507040811 | 51 | 131 | 0.0 | 0.0 | 0.00 | 0.00 | 0.00 | 99 | 1014.8 |
| 20260507040307 | 51 | 137 | 0.0 | 0.0 | 0.00 | 0.58 | 0.58 | 99 | 1014.9 |
| 20260507035803 | 51 | 137 | 0.0 | 0.0 | 0.00 | 0.58 | 0.58 | 99 | 1014.7 |
| 20260507035258 | 51 | 137 | 0.0 | 0.0 | 0.00 | 0.58 | 0.58 | 99 | 1014.7 |
| 20260507034757 | 51 | 137 | 0.0 | 0.0 | 0.00 | 0.58 | 0.58 | 99 | 1014.4 |
| 20260507034253 | 51 | 137 | 0.0 | 0.0 | 0.00 | 0.58 | 0.58 | 99 | 1014.6 |
| 20260507033752 | 51 | 137 | 0.0 | 0.0 | 0.00 | 0.58 | 0.58 | 99 | 1014.7 |
| 20260507033249 | 51 | 137 | 0.0 | 0.0 | 0.00 | 0.58 | 0.58 | 99 | 1014.8 |
| 20260507032746 | 51 | 137 | 0.0 | 0.0 | 0.00 | 0.58 | 0.58 | 99 | 1014.7 |
| 20260507032242 | 51 | 138 | 0.0 | 0.0 | 0.00 | 0.58 | 0.58 | 99 | 1014.7 |
| 20260507031738 | 51 | 138 | 0.0 | 0.0 | 0.00 | 0.58 | 0.58 | 99 | 1015.1 |
| 20260507031235 | 51 | 138 | 0.0 | 0.0 | 0.00 | 0.58 | 0.58 | 99 | 1015.0 |
| 20260507030732 | 51 | 138 | 0.0 | 0.0 | 0.00 | 0.58 | 0.58 | 99 | 1015.1 |
| 20260507030229 | 51 | 138 | 0.0 | 0.0 | 0.00 | 0.58 | 0.58 | 99 | 1015.1 |
| 20260507025727 | 51 | 112 | 0.0 | 0.0 | 0.00 | 0.58 | 0.58 | 99 | 1015.2 |
| 20260507025223 | 51 | 112 | 0.0 | 0.0 | 0.00 | 0.58 | 0.58 | 99 | 1015.0 |
| 20260507024722 | 51 | 112 | 0.0 | 0.0 | 0.00 | 0.58 | 0.58 | 99 | 1014.7 |
| 20260507024219 | 51 | 112 | 0.0 | 0.0 | 0.00 | 0.58 | 0.58 | 99 | 1014.6 |